sat.trackr.live / text

‹ back to catalog

FLYLAB2

NORAD 68503 · 2026-067CR

PAYLOAD ACTIVE UNKNOWN

§ Identity

Operator
Country
FR
Launch date
2026-03-30
Launch site
AFWTR
Launch vehicle
Mass (kg)
RCS (m²)

External: N2YO · Heavens-Above · Gunter

§ Orbital elements

Epoch: 2026-05-25T03:33:51.278688Z

Period
96.60 min
Inclination
97.7559°
Eccentricity
0.0006413
Mean motion
14.90651421 rev/d
Perigee alt
591.4 km
Apogee alt
600.4 km
Semi-major
6,974.0 km
B*
1.6928e-4
RAAN
103.6505°
Arg perigee
125.8171°
Mean anomaly
234.3644°
Rev number
828

§ Raw data

FLYLAB21 68503U 26067CR  26145.14851017  .00001604  00000+0  16928-3 0  99972 68503  97.7559 103.6505 0006413 125.8171 234.3644 14.90651421  8282

JSON: /api/v1/satellites/68503 · /tle

For live sub-satellite position, see the globe view (requires WebGL).

§ Visibility from observer

Set your observer location to see the next 7 days of passes ≥ 10°. The values pass through the URL so the page stays shareable.

No JS? Fill the form by hand. The geolocation button needs JavaScript.